Track STARLINK-4641 now! 10-day predictions STARLINK-4641 is classified as:
1 53730U 22107AG 24325.14919236 .00000818 00000-0 69485-4 0 9994 2 53730 53.2174 224.4457 0001547 89.7128 270.4042 15.08843318122917